EDT,Max TemperatureF,Mean TemperatureF,Min TemperatureF,Max Dew PointF,MeanDew PointF,Min DewpointF,Max Humidity, Mean Humidity, Min Humidity, Max Sea Level PressureIn, Mean Sea Level PressureIn, Min Sea Level PressureIn, Max VisibilityMiles, Mean VisibilityMiles, Min VisibilityMiles, Max Wind SpeedMPH, Mean Wind SpeedMPH, Max Gust SpeedMPH,PrecipitationIn, CloudCover, Events, WindDirDegrees
2014-4-1,80,61,42,54,43,27,100,60,14,30.22,30.16,30.12,10,9,0,8,2,,0.00,0,,229
2014-4-2,82,64,46,57,49,43,100,59,25,30.22,30.17,30.13,10,10,10,8,2,,0.00,0,,197
2014-4-3,84,68,51,61,56,52,100,69,33,30.17,30.11,30.04,10,10,6,13,4,16,0.00,0,,210
2014-4-4,82,68,55,64,60,55,100,75,39,30.09,30.04,29.98,10,9,1,12,4,21,0.00,1,,214
2014-4-5,80,71,62,66,65,63,100,81,58,30.07,30.02,29.97,10,8,0,13,5,18,0.00,4,,239
2014-4-6,84,74,64,64,62,52,100,73,33,30.06,30.00,29.94,10,10,2,13,4,16,0.00,1,,127
2014-4-7,84,74,64,68,65,61,100,74,48,29.97,29.88,29.81,10,9,4,17,7,24,0.00,2,Thunderstorm,181
2014-4-8,75,67,59,72,62,50,100,81,46,29.85,29.77,29.70,10,9,1,17,8,25,0.09,3,Thunderstorm,246
2014-4-9,71,61,51,54,47,39,88,63,31,30.19,30.01,29.85,10,10,10,15,7,18,0.00,1,,292
2014-4-10,75,60,46,52,46,37,100,60,27,30.33,30.25,30.19,10,10,7,10,2,,0.00,0,,209
2014-4-11,78,64,51,61,53,46,100,68,34,30.31,30.24,30.17,10,10,10,13,2,,0.00,1,,120
2014-4-12,80,68,57,63,56,43,100,67,28,30.24,30.19,30.14,10,10,6,12,4,17,0.00,1,,104
2014-4-13,82,70,59,64,59,54,100,72,37,30.19,30.13,30.05,10,10,3,16,7,22,0.00,0,,96
2014-4-14,86,75,64,70,63,54,100,74,39,30.07,29.97,29.88,10,10,4,16,6,21,0.00,2,,165
2014-4-15,78,66,51,72,64,45,100,88,74,30.04,29.86,29.75,10,10,1,21,7,29,0.07,5,Thunderstorm,225
2014-4-16,64,52,41,50,45,37,93,72,52,30.24,30.16,30.04,10,10,10,18,9,24,0.00,4,,26
2014-4-17,73,62,51,63,58,50,100,84,65,30.30,30.23,30.19,10,9,6,18,9,26,0.00,6,,39
2014-4-18,73,68,62,73,67,63,100,95,83,30.20,30.04,29.92,10,8,1,12,8,21,0.04,5,Thunderstorm,108
2014-4-19,73,66,60,68,64,59,100,93,69,30.01,29.91,29.86,10,8,1,14,7,18,0.01,8,Thunderstorm,229
2014-4-20,62,58,55,59,56,54,100,91,77,30.13,30.08,30.00,10,9,1,13,7,16,0.00,8,,349
2014-4-21,73,64,55,61,57,55,100,84,57,30.13,30.06,30.00,10,10,5,10,3,,0.00,6,,354
2014-4-22,80,66,53,63,56,52,100,73,39,30.00,29.93,29.85,10,10,8,12,3,16,0.00,1,,257
2014-4-23,84,72,59,64,61,57,100,76,40,29.96,29.91,29.86,10,9,4,12,4,,0.00,0,,275
2014-4-24,86,74,62,66,62,55,100,73,35,30.04,29.97,29.93,10,7,0,12,3,16,0.00,3,,221
2014-4-25,84,72,60,66,62,55,100,73,39,30.02,29.97,29.92,10,9,0,18,5,25,0.00,1,,257
2014-4-26,84,75,66,68,61,54,100,69,35,30.05,30.00,29.96,10,8,4,9,5,,0.00,2,,283
2014-4-27,87,74,62,70,64,59,100,72,40,30.05,29.99,29.93,10,9,0,12,5,,0.00,1,,149
2014-4-28,89,78,66,70,64,59,100,68,38,29.99,29.94,29.89,10,10,3,13,5,23,0.00,0,,181
2014-4-29,87,78,69,72,68,63,100,82,46,30.01,29.95,29.88,10,10,9,20,6,28,0.00,1,Thunderstorm,162
2014-4-30,80,74,68,73,69,63,100,84,54,30.09,30.03,29.95,10,10,2,15,6,21,0.03,1,Thunderstorm,198